Retour au catalogue

TSX-5

ActifMilitaireLEO
NORAD 26374·PAYLOAD·🇺🇸 United States

Lancé Jun 7, 2000 depuis Vandenberg Space Force Base

Loading…

Prochains Passages (prochaines 24 heures)

TLE

FraisSource: Space-Track

Époque: Sep 14, 2026, 08:29 UTC

1 26374U 00030A   26257.35407484  .00006300  00000-0  31599-3 0  9991
2 26374  68.9110 115.4104 0425750 307.1449  49.1493 14.63485457335598

Suivez TSX-5 en temps réel avec AllMySat

Download on the App Store